Weather History for Sarasota, FL

Change the Weather History Date:

Monday, December 31, 2012

  Actual Average Record
Temperature  
Mean Temperature 59 °F 61 °F  
Max Temperature 74 °F 71 °F 87 °F (1990)
Min Temperature 44 °F 52 °F 29 °F (1926)
Degree Days  
Heating Degree Days 6 5  
Month to date heating degree days 77 120  
Since 1 July heating degree days 118 155  
Cooling Degree Days 0 2  
Month to date cooling degree days 93 74  
Year to date cooling degree days 3817 3374  
Growing Degree Days 9 (Base 50)    
Moisture  
Dew Point 50 °F    
Average Humidity 76    
Maximum Humidity 93    
Minimum Humidity 49    
Precipitation  
Precipitation 0.00 in 0.07 in 3.12 in (2002)
Month to date precipitation 1.75 2.53  
Year to date precipitation 45.79 53.01  
Sea Level Pressure  
Sea Level Pressure 30.26 in    
Wind  
Wind Speed 5 mph (NE)    
Max Wind Speed 17 mph    
Max Gust Speed 21 mph    
Visibility 10 miles    
Events      
T = Trace of Precipitation, MM = Missing Value Source: NWS Daily Summary

Daily Weather History Graph

Daily Weather History Graph

Search for Another Location

Airport:

Trip Planner

Search our weather history database for the weather conditions in past years. The results will help you decide how hot, cold, wet, or windy it might be!

Date:

Astronomy

Dec. 31, 2012 Rise Set
Actual Time 7:20 AM EST 5:46 PM EST
Civil Twilight 6:54 AM EST 6:12 PM EST
Nautical Twilight 6:25 AM EST 6:41 PM EST
Astronomical Twilight 5:57 AM EST 7:10 PM EST
Moon 8:57 PM EST (12/31) 9:18 AM EST (12/31)
Length of Visible Light 11h 17m
Length of Day
10h 26m
Waning Gibbous, 90% of the Moon is Illuminated
Dec 31
Waning Gibbous
Jan 4
Last Quarter
Jan 11
New
Jan 18
First Quarter
Jan 26
Full

Hourly Weather History & Observations

Time (EST) Temp. Windchill Dew Point Humidity Pressure Visibility Wind Dir Wind Speed Gust Speed Precip Events Conditions
12:53 AM 48.0 °F - 42.1 °F 80% 30.32 in 10.0 mi NE 6.9 mph - N/A   Clear
1:53 AM 46.0 °F 42.5 °F 42.1 °F 86% 30.31 in 10.0 mi NE 6.9 mph - N/A   Clear
2:53 AM 45.0 °F 42.6 °F 41.0 °F 86% 30.30 in 10.0 mi NE 4.6 mph - N/A   Clear
3:53 AM 45.0 °F 43.5 °F 42.1 °F 90% 30.29 in 10.0 mi NE 3.5 mph - N/A   Clear
4:53 AM 45.0 °F 41.8 °F 42.1 °F 90% 30.28 in 10.0 mi NE 5.8 mph - N/A   Clear
5:53 AM 46.0 °F 43.1 °F 43.0 °F 89% 30.29 in 10.0 mi NE 5.8 mph - N/A   Clear
7:53 AM 46.0 °F 43.1 °F 44.1 °F 93% 30.30 in 10.0 mi ENE 5.8 mph - N/A   Clear
8:53 AM 52.0 °F - 48.0 °F 86% 30.31 in 10.0 mi ENE 5.8 mph - N/A   Clear
9:53 AM 59.0 °F - 50.0 °F 72% 30.34 in 10.0 mi ENE 4.6 mph - N/A   Clear
10:53 AM 64.9 °F - 52.0 °F 63% 30.32 in 10.0 mi East 8.1 mph - N/A   Clear
11:53 AM 70.0 °F - 53.1 °F 55% 30.29 in 10.0 mi SE 11.5 mph 17.3 mph N/A   Clear
12:53 PM 72.0 °F - 53.1 °F 51% 30.25 in 10.0 mi SE 9.2 mph 16.1 mph N/A   Clear
1:53 PM 73.0 °F - 54.0 °F 51% 30.22 in 10.0 mi SSE 10.4 mph - N/A   Clear
2:53 PM 70.0 °F - 55.0 °F 59% 30.19 in 10.0 mi WSW 9.2 mph - N/A   Clear
3:53 PM 69.1 °F - 55.9 °F 63% 30.18 in 10.0 mi West 5.8 mph - N/A   Clear
4:53 PM 66.9 °F - 55.9 °F 68% 30.19 in 10.0 mi West 5.8 mph - N/A   Clear
5:53 PM 63.0 °F - 55.0 °F 75% 30.19 in 10.0 mi NW 4.6 mph - N/A   Clear
6:53 PM 62.1 °F - 54.0 °F 75% 30.20 in 10.0 mi Calm Calm - N/A   Clear
9:53 PM 55.9 °F - 53.1 °F 90% 30.22 in 8.0 mi Calm Calm - N/A   Clear
10:53 PM 55.9 °F - 53.1 °F 90% 30.22 in 7.0 mi NE 3.5 mph - N/A   Clear
11:53 PM 55.0 °F - 53.1 °F 93% 30.21 in 6.0 mi Calm Calm - N/A   Clear